Torrington, WY

7:29 PM MDT on April 26, 2018 (GMT -0600)
Torrington Municipal

Weather History for KTOR - March, 2013

Change the Weather History Date:

Saturday, March 16, 2013

  Actual Average Record
Temperature  
Mean Temperature 45 °F 38 °F  
Max Temperature 60 °F 51 °F 78 °F (2012)
Min Temperature 29 °F 24 °F 1 °F (2002)
Degree Days  
Heating Degree Days 20 27  
Month to date heating degree days 406 464  
Since 1 July heating degree days 5019 5308  
Cooling Degree Days 0 0  
Month to date cooling degree days 0 0  
Year to date cooling degree days 0 0  
Moisture  
Dew Point 30 °F    
Average Humidity 57    
Maximum Humidity 79    
Minimum Humidity 31    
Precipitation  
Precipitation T in 0.02 in 0.12 in (2018)
Month to date precipitation 0.10 0.27  
Year to date precipitation 0.49 0.87  
Sea Level Pressure  
Sea Level Pressure 29.87 in    
Wind  
Wind Speed 12 mph (ESE)    
Max Wind Speed 29 mph    
Max Gust Speed 39 mph    
Visibility 10 miles    
Events      
T = Trace of Precipitation, MM = Missing Value Source: NWS Daily Summary

Daily Weather History Graph

Daily Weather History Graph

Search for Another Location

Airport or City:

Astronomy

Mar. 16, 2013 Rise Set
Actual Time 7:06 AM MDT 7:04 PM MDT
Civil Twilight 6:38 AM MDT 7:32 PM MDT
Nautical Twilight 6:05 AM MDT 8:05 PM MDT
Astronomical Twilight 5:32 AM MDT 8:38 PM MDT
Moon 9:32 AM MDT (3/16) No Moon Set
Length of Visible Light 12h 54m
Length of Day
11h 58m
Waxing Crescent, 23% of the Moon is Illuminated
Mar 16
Waxing Crescent
Mar 19
First Quarter
Mar 27
Full
Apr 2
Last Quarter
Apr 10
New

Hourly Weather History & Observations

Time (MDT) Temp. Windchill Dew Point Humidity Pressure Visibility Wind Dir Wind Speed Gust Speed Precip Events Conditions
12:53 AM 46.9 °F - 28.0 °F 48% 29.88 in 10.0 mi NE 20.7 mph 25.3 mph 0.00 in   Overcast
1:53 AM 46.0 °F 39.6 °F 30.0 °F 54% 29.90 in 10.0 mi ENE 15.0 mph - N/A   Overcast
2:53 AM 43.0 °F 38.2 °F 32.0 °F 65% 29.92 in 10.0 mi ENE 8.1 mph - N/A   Overcast
3:53 AM 41.0 °F 39.0 °F 32.0 °F 70% 29.94 in 10.0 mi SE 3.5 mph - N/A   Overcast
4:53 AM 42.1 °F - 32.0 °F 67% 29.94 in 10.0 mi Calm Calm - N/A   Overcast
5:21 AM 42.8 °F - 32.0 °F 66% 30.01 in 10.0 mi Calm Calm - N/A   Overcast
5:53 AM 41.0 °F - 32.0 °F 70% 29.95 in 10.0 mi Calm Calm - N/A   Overcast
6:53 AM 41.0 °F 39.0 °F 33.1 °F 73% 29.96 in 10.0 mi East 3.5 mph - N/A   Overcast
7:53 AM 41.0 °F 37.1 °F 33.1 °F 73% 29.95 in 10.0 mi East 5.8 mph - N/A   Overcast
8:53 AM 42.1 °F 37.7 °F 32.0 °F 67% 29.95 in 10.0 mi ESE 6.9 mph - N/A   Overcast
9:05 AM 42.8 °F 38.0 °F 32.0 °F 66% 29.99 in 10.0 mi SE 8.1 mph - N/A   Overcast
9:53 AM 45.0 °F 41.2 °F 30.9 °F 58% 29.94 in 10.0 mi SSE 6.9 mph - N/A   Overcast
10:53 AM 46.9 °F - 28.9 °F 50% 29.93 in 10.0 mi SSE 16.1 mph 23.0 mph N/A   Overcast
11:53 AM 50.0 °F - 28.9 °F 44% 29.90 in 10.0 mi South 17.3 mph 25.3 mph N/A   Mostly Cloudy
12:53 PM 54.0 °F - 28.9 °F 38% 29.84 in 10.0 mi South 21.9 mph 29.9 mph N/A   Mostly Cloudy
1:53 PM 55.9 °F - 28.9 °F 36% 29.80 in 10.0 mi South 23.0 mph 33.4 mph N/A   Clear
2:53 PM 55.0 °F - 28.9 °F 37% 29.77 in 10.0 mi South 18.4 mph 26.5 mph N/A   Partly Cloudy
3:53 PM 57.0 °F - 30.0 °F 36% 29.73 in 10.0 mi SSE 21.9 mph 29.9 mph N/A   Clear
4:53 PM 57.9 °F - 30.0 °F 35% 29.71 in 10.0 mi South 19.6 mph 26.5 mph N/A   Clear
5:53 PM 59.0 °F - 28.0 °F 31% 29.70 in 10.0 mi Variable 5.8 mph - N/A   Partly Cloudy
6:53 PM 53.1 °F - 28.0 °F 38% 29.72 in 10.0 mi NNE 10.4 mph - N/A   Clear
7:53 PM 46.0 °F 39.0 °F 32.0 °F 58% 29.77 in 10.0 mi NE 17.3 mph 24.2 mph N/A   Clear
8:53 PM 37.9 °F 27.9 °F 30.9 °F 76% 29.82 in 10.0 mi NNE 19.6 mph - N/A   Clear
9:53 PM 35.1 °F 23.8 °F 28.9 °F 78% 29.84 in 10.0 mi NE 20.7 mph - N/A   Clear
10:53 PM 33.1 °F 26.9 °F 27.0 °F 78% 29.85 in 10.0 mi ENE 6.9 mph - N/A   Clear
11:53 PM 30.9 °F 24.3 °F 25.0 °F 79% 29.83 in 10.0 mi ENE 6.9 mph 17.3 mph N/A   Clear